(103) Hera
ephemeris date magn radius delta ra dec elong phase
Today6 Jul 202513.12.866 AU3.880 AU07h10m+20°30'3.3°1.2°
Opposition19 Feb 202611.62.920 AU1.932 AU10h17m+12°57'177.6°0.8°
(103) Hera - 2025-07-06
astro.vanbuitenen.nl


 
-1 year
-1 month
-1 day
Now
+1 day
+1 month
+1 year

The interactive orbit chart above shows the body's path through the solar system and its position at the given date. Green and blue lines are shown perpendicular to the ecliptic plane: Green if the path is above the ecliptic plane, blue if it is below. (Left-click and drag to rotate the view; Right-click and drag to move the view; Use scroll wheel to zoom in our out.)

The orbital elements of Hera are:

            e (Eccentricity)                : 0.0801521
            a (Semimajor axis)              : 2.7045465
            i (Inclination)                 : 5.42148
            Ω (Longitude of ascending node) : 135.97346
            ω (Argument of perihelion)      : 190.38520
            M (Mean anomaly)                : 121.30224
            Epoch                           : 2025 May 05

            L (Longitude of perihelion)     : 146.31321
            B (Latitude of perihelion)      : -0.97589
            P (Orbital period in years)     : 4.45            
        

The light curve chart below shows the estimated development of the minor planet's magnitude.


The all-sky chart below shows the path of the minor planet over the same period as the light curve. The current position is marked yellow.





The following chart shows the path of the minor planet in the next few days. The field of view is optimized for (~10x50) binoculars and finderscopes. A more printer-friendly version of the same chart can be found below.




Ephemerides:
Date       Time       RA (2000)    DEC (2000)    delta   radius  elong  phase   PA    magn
2025-07-06 00:00 UT   07 10 55.2   +20 30 49     3.880    2.866    3.3    1.2   132   13.1 
2025-07-06 00:54 UT   07 10 59.0   +20 30 44     3.880    2.866    3.3    1.2   132   13.1 
2025-07-07 00:00 UT   07 12 35.9   +20 28 39     3.881    2.866    2.9    1.0   138   13.1 
2025-07-08 00:00 UT   07 14 16.5   +20 26 24     3.882    2.867    2.5    0.9   147   13.1 
2025-07-09 00:00 UT   07 15 57.0   +20 24 06     3.883    2.867    2.1    0.8   158   13.1 
2025-07-10 00:00 UT   07 17 37.4   +20 21 44     3.884    2.868    1.9    0.7   173   13.1 
2025-07-11 00:00 UT   07 19 17.8   +20 19 17     3.884    2.869    1.8    0.7   190   13.1 
2025-07-12 00:00 UT   07 20 58.1   +20 16 47     3.885    2.869    1.9    0.7   207   13.1 
2025-07-13 00:00 UT   07 22 38.2   +20 14 13     3.885    2.870    2.2    0.8   221   13.1 
2025-07-14 00:00 UT   07 24 18.3   +20 11 34     3.885    2.870    2.5    0.9   232   13.1 
2025-07-15 00:00 UT   07 25 58.4   +20 08 52     3.885    2.871    2.9    1.0   240   13.1 
2025-07-16 00:00 UT   07 27 38.3   +20 06 06     3.885    2.871    3.4    1.2   247   13.1 
2025-07-17 00:00 UT   07 29 18.1   +20 03 16     3.885    2.872    3.9    1.4   251   13.2 
2025-07-18 00:00 UT   07 30 57.8   +20 00 22     3.884    2.872    4.4    1.5   255   13.2 
2025-07-19 00:00 UT   07 32 37.4   +19 57 24     3.884    2.873    4.9    1.7   258   13.2 
2025-07-20 00:00 UT   07 34 16.9   +19 54 23     3.883    2.873    5.4    1.9   260   13.2 
2025-07-21 00:00 UT   07 35 56.3   +19 51 18     3.882    2.874    5.9    2.1   262   13.2 
2025-07-22 00:00 UT   07 37 35.5   +19 48 09     3.881    2.874    6.5    2.3   264   13.2 
2025-07-23 00:00 UT   07 39 14.7   +19 44 56     3.880    2.875    7.0    2.5   266   13.2 
2025-07-24 00:00 UT   07 40 53.7   +19 41 39     3.879    2.875    7.5    2.7   267   13.3 
2025-07-25 00:00 UT   07 42 32.5   +19 38 19     3.878    2.876    8.1    2.9   268   13.3 
2025-07-26 00:00 UT   07 44 11.2   +19 34 56     3.876    2.876    8.6    3.0   269   13.3 
2025-07-27 00:00 UT   07 45 49.8   +19 31 28     3.874    2.877    9.2    3.2   270   13.3 


    Terminology:
            
    delta:  distance between minor planet and earth in AU
    radius: distance between minor planet and sun in AU
    magn:   magnitude (brightness) estimate    
    ra:     right ascension in hours (24h = 360deg)
    dec:    declination in degrees
    elong:  elongation in degrees (angle sun-earth-minor planet)    
    phase:  phase angle in degrees (angle sun-minor planet-earth)        
    AU:     Astronomical Unit (mean distance between earth and sun: 149597870.7 km
    

Orbital elements provided by the MPC (Minor Planet Center).
Calculations by a modified version of AAPlus, a C# implementation of the AA+ project by PJ Naughter from the algorithms presented in the book "Astronomical Algorithms" by Jean Meeus.
NGC2000 dso catalog and star labels from VizieR as provided by the Strasbourg astronomical Data Center.
Tycho2 catalog from the ESO archive.